This is the latest recevied weather packets stored in our database for station/object N7NKE. If no packets are shown the sender has not sent any weather packets the latest 10 day(s).
| Time | Temp. | Humidity | Pressure | Rain* | Wind** | Luminosity | Snow |
|---|---|---|---|---|---|---|---|
| 1777812605 | 11.11° C | 91% | 1011.5 hPa | 0 mm | - | 0 W/m² | - |
| 1777811406 | 11.11° C | 91% | 1011.5 hPa | 0 mm | - | 0 W/m² | - |
| 1777810506 | 11.11° C | 91% | 1011.5 hPa | 0 mm | - | 0 W/m² | - |
| 1777809905 | 11.67° C | 91% | 1011.6 hPa | 0 mm | - | 0 W/m² | - |
| 1777808405 | 11.67° C | 91% | 1011.7 hPa | 0 mm | - | 0 W/m² | - |
| 1777808105 | 11.67° C | 91% | 1011.7 hPa | 0 mm | - | 0 W/m² | - |
| 1777804506 | 12.22° C | 90% | 1011.9 hPa | 0 mm | - | 0 W/m² | - |
| 1777803606 | 12.22° C | 90% | 1012 hPa | 0 mm | - | 0 W/m² | - |
| 1777801205 | 12.78° C | 90% | 1012.2 hPa | 0 mm | - | 0 W/m² | - |
| 1777800305 | 12.78° C | 90% | 1012.2 hPa | 0 mm | - | 0 W/m² | - |
| 1777799405 | 12.78° C | 90% | 1012.3 hPa | 0 mm | - | 0 W/m² | - |
| 1777793405 | 13.89° C | 88% | 1012.5 hPa | 0 mm | - | 0 W/m² | - |
| 1777792805 | 14.44° C | 87% | 1012.5 hPa | 0 mm | - | 0 W/m² | - |
| 1777792506 | 14.44° C | 86% | 1012.5 hPa | 0 mm | - | 0 W/m² | - |
| 1777788606 | 16.11° C | 82% | 1012.1 hPa | 0 mm | - | 0 W/m² | - |
| 1777788305 | 16.67° C | 81% | 1012.1 hPa | 0 mm | - | 0 W/m² | - |
| 1777787106 | 16.11° C | 83% | 1012.2 hPa | 0 mm | - | 0 W/m² | - |
| 1777784406 | 17.22° C | 79% | 1012.6 hPa | 0 mm | - | 0 W/m² | - |
| 1777784105 | 17.22° C | 79% | 1012.6 hPa | 0 mm | - | 0 W/m² | - |
| 1777781706 | 17.78° C | 78% | 1012.6 hPa | 0 mm | - | 0 W/m² | - |
| 1777781105 | 17.78° C | 78% | 1012.4 hPa | 0 mm | - | 0 W/m² | - |
| 1777779606 | 18.33° C | 74% | 1012.2 hPa | 0 mm | - | 0 W/m² | - |
| 1777778405 | 18.33° C | 72% | 1012 hPa | 0 mm | - | 0 W/m² | - |
| 1777776605 | 18.89° C | 72% | 1012.1 hPa | 0 mm | - | 28 W/m² | - |
| 1777774805 | 20.56° C | 68% | 1011.7 hPa | 0 mm | - | 65 W/m² | - |
* Rain latest hour (hover to see other rain measurements)
** Current wind speed in m/s (hover to see current wind gust speed)